| time (UTC) | temp C | wind direction | speed KPH | gust KPH | rain 1hr cm | rain 24hr cm | rain mn cm | humidity % | barometer mb |
| 20260505171502 | 25 | 331 | 4.8 | 14.5 | 0.00 | 0.00 | 0.00 | 37 | 1016.4 |
| 20260505170502 | 26 | 334 | 8.0 | 22.5 | 0.00 | 0.00 | 0.00 | 35 | 1016.3 |
| 20260505165503 | 25 | 264 | 4.8 | 17.7 | 0.00 | 0.00 | 0.00 | 40 | 1016.3 |
| 20260505164502 | 25 | 267 | 6.4 | 20.9 | 0.00 | 0.00 | 0.00 | 41 | 1016.3 |
| 20260505164002 | 25 | 327 | 6.4 | 16.1 | 0.00 | 0.00 | 0.00 | 42 | 1016.3 |
| 20260505163503 | 25 | 254 | 6.4 | 16.1 | 0.00 | 0.00 | 0.00 | 45 | 1016.4 |
| 20260505163002 | 25 | 300 | 6.4 | 17.7 | 0.00 | 0.00 | 0.00 | 45 | 1016.5 |
| 20260505162501 | 25 | 309 | 6.4 | 17.7 | 0.00 | 0.00 | 0.00 | 46 | 1016.4 |
| 20260505161502 | 24 | 302 | 4.8 | 16.1 | 0.00 | 0.00 | 0.00 | 46 | 1016.5 |
| 20260505161002 | 24 | 128 | 3.2 | 11.3 | 0.00 | 0.00 | 0.00 | 52 | 1016.6 |
| 20260505160501 | 23 | 259 | 3.2 | 12.9 | 0.00 | 0.00 | 0.00 | 49 | 1016.6 |
| 20260505153002 | 23 | 181 | 1.6 | 4.8 | 0.00 | 0.00 | 0.00 | 55 | 1016.9 |
| 20260505152504 | 23 | 317 | 1.6 | 6.4 | 0.00 | 0.00 | 0.00 | 57 | 1016.8 |
| 20260505152002 | 22 | 182 | 3.2 | 8.0 | 0.00 | 0.00 | 0.00 | 56 | 1016.9 |
| 20260505151503 | 22 | 257 | 3.2 | 8.0 | 0.00 | 0.00 | 0.00 | 57 | 1017.0 |
| 20260505151001 | 22 | 194 | 3.2 | 9.7 | 0.00 | 0.00 | 0.00 | 58 | 1017.0 |
| 20260505150503 | 22 | 304 | 3.2 | 9.7 | 0.00 | 0.00 | 0.00 | 59 | 1017.1 |
| 20260505125000 | 12 | 290 | 3.2 | 11.3 | 0.00 | 0.00 | 0.00 | 87 | 1016.4 |
| 20260505124502 | 12 | 295 | 3.2 | 11.3 | 0.00 | 0.00 | 0.00 | 88 | 1016.3 |
| 20260505124000 | 12 | 290 | 3.2 | 6.4 | 0.00 | 0.00 | 0.00 | 88 | 1016.3 |
| 20260505123500 | 12 | 290 | 1.6 | 6.4 | 0.00 | 0.00 | 0.00 | 89 | 1016.3 |
| 20260505123003 | 11 | 269 | 1.6 | 6.4 | 0.00 | 0.00 | 0.00 | 89 | 1016.1 |
| 20260505122502 | 11 | 279 | 1.6 | 4.8 | 0.00 | 0.00 | 0.00 | 88 | 1016.2 |
| 20260505122000 | 11 | 295 | 3.2 | 8.0 | 0.00 | 0.00 | 0.00 | 89 | 1016.1 |
| 20260505121500 | 11 | 298 | 3.2 | 8.0 | 0.00 | 0.00 | 0.00 | 89 | 1016.1 |
| 20260505121000 | 11 | 285 | 1.6 | 9.7 | 0.00 | 0.00 | 0.00 | 89 | 1016.1 |
| 20260505120003 | 10 | 280 | 1.6 | 4.8 | 0.00 | 0.00 | 0.00 | 91 | 1015.9 |
| 20260505115500 | 10 | 315 | 0.0 | 3.2 | 0.00 | 0.00 | 0.00 | 91 | 1016.0 |
| 20260505115002 | 10 | 246 | 0.0 | 3.2 | 0.00 | 0.00 | 0.00 | 91 | 1016.0 |
| 20260505114500 | 10 | 242 | 0.0 | 1.6 | 0.00 | 0.00 | 0.00 | 91 | 1015.9 |
| 20260505114000 | 9 | 186 | 1.6 | 3.2 | 0.00 | 0.00 | 0.00 | 91 | 1015.8 |
| 20260505113000 | 9 | 186 | 0.0 | 3.2 | 0.00 | 0.00 | 0.00 | 90 | 1015.7 |
| 20260505112002 | 9 | 186 | 0.0 | 1.6 | 0.00 | 0.00 | 0.00 | 89 | 1015.8 |
| 20260505111500 | 9 | 186 | 0.0 | 1.6 | 0.00 | 0.00 | 0.00 | 89 | 1015.8 |
| 20260505111005 | 8 | 186 | 0.0 | 1.6 | 0.00 | 0.00 | 0.00 | 90 | 1015.9 |
| 20260505110500 | 8 | 186 | 0.0 | 3.2 | 0.00 | 0.00 | 0.00 | 90 | 1016.0 |
| 20260505102002 | 8 | 186 | 0.0 | 0.0 | 0.00 | 0.00 | 0.00 | 89 | 1015.6 |
| 20260505100500 | 8 | 186 | 0.0 | 0.0 | 0.00 | 0.00 | 0.00 | 89 | 1015.5 |
| 20260505100006 | 8 | 186 | 0.0 | 0.0 | 0.00 | 0.00 | 0.00 | 88 | 1015.5 |
| 20260505095000 | 8 | 186 | 1.6 | 3.2 | 0.00 | 0.00 | 0.00 | 88 | 1015.6 |
| 20260505094502 | 8 | 186 | 0.0 | 1.6 | 0.00 | 0.00 | 0.00 | 88 | 1015.5 |
| 20260505094001 | 8 | 186 | 0.0 | 0.0 | 0.00 | 0.00 | 0.00 | 87 | 1015.6 |
| 20260505093500 | 8 | 186 | 0.0 | 0.0 | 0.00 | 0.00 | 0.00 | 86 | 1015.6 |
| 20260505093003 | 8 | 186 | 0.0 | 0.0 | 0.00 | 0.00 | 0.00 | 86 | 1015.6 |
| 20260505092500 | 8 | 186 | 0.0 | 0.0 | 0.00 | 0.00 | 0.00 | 87 | 1015.6 |
| 20260505092000 | 8 | 186 | 0.0 | 0.0 | 0.00 | 0.00 | 0.00 | 87 | 1015.6 |
| 20260505090500 | 8 | 186 | 0.0 | 0.0 | 0.00 | 0.00 | 0.00 | 87 | 1015.5 |
| 20260505090002 | 8 | 186 | 0.0 | 0.0 | 0.00 | 0.00 | 0.00 | 84 | 1015.3 |
| 20260505085501 | 8 | 186 | 0.0 | 0.0 | 0.00 | 0.00 | 0.00 | 85 | 1015.3 |
| 20260505084501 | 9 | 186 | 0.0 | 0.0 | 0.00 | 0.00 | 0.00 | 84 | 1015.3 |
| 20260505084001 | 9 | 186 | 0.0 | 0.0 | 0.00 | 0.00 | 0.00 | 85 | 1015.3 |
| 20260505083501 | 9 | 186 | 0.0 | 0.0 | 0.00 | 0.00 | 0.00 | 85 | 1015.1 |
| 20260505083002 | 9 | 186 | 0.0 | 0.0 | 0.00 | 0.00 | 0.00 | 85 | 1015.2 |
| 20260505082501 | 9 | 186 | 0.0 | 0.0 | 0.00 | 0.00 | 0.00 | 85 | 1015.1 |
| 20260505082001 | 9 | 186 | 0.0 | 0.0 | 0.00 | 0.00 | 0.00 | 85 | 1015.1 |
| 20260505081500 | 9 | 186 | 0.0 | 0.0 | 0.00 | 0.00 | 0.00 | 85 | 1015.1 |
| 20260505081003 | 9 | 186 | 0.0 | 0.0 | 0.00 | 0.00 | 0.00 | 86 | 1015.1 |
| 20260505080501 | 9 | 186 | 0.0 | 1.6 | 0.00 | 0.00 | 0.00 | 86 | 1014.9 |
| 20260505080003 | 9 | 186 | 0.0 | 1.6 | 0.00 | 0.00 | 0.00 | 86 | 1015.0 |
| 20260505075502 | 9 | 186 | 0.0 | 1.6 | 0.00 | 0.00 | 0.00 | 85 | 1015.0 |
| 20260505075001 | 9 | 186 | 0.0 | 0.0 | 0.00 | 0.00 | 0.00 | 84 | 1014.9 |
| 20260505074501 | 9 | 186 | 0.0 | 0.0 | 0.00 | 0.00 | 0.00 | 85 | 1014.9 |
| 20260505074000 | 9 | 186 | 0.0 | 0.0 | 0.00 | 0.00 | 0.00 | 85 | 1015.0 |
| 20260505073502 | 9 | 186 | 0.0 | 0.0 | 0.00 | 0.00 | 0.00 | 85 | 1014.9 |
| 20260505073000 | 9 | 186 | 0.0 | 0.0 | 0.00 | 0.00 | 0.00 | 85 | 1015.0 |
| 20260505072500 | 9 | 186 | 0.0 | 0.0 | 0.00 | 0.00 | 0.00 | 85 | 1014.9 |
| 20260505071503 | 9 | 186 | 0.0 | 1.6 | 0.00 | 0.00 | 0.00 | 85 | 1015.2 |
| 20260505071000 | 9 | 186 | 0.0 | 3.2 | 0.00 | 0.00 | 0.00 | 85 | 1015.1 |
| 20260505070500 | 9 | 186 | 1.6 | 3.2 | 0.00 | 0.00 | 0.00 | 85 | 1015.2 |
| 20260505070005 | 10 | 186 | 0.0 | 3.2 | 0.00 | 0.00 | 0.00 | 84 | 1015.2 |
| 20260505065500 | 10 | 186 | 0.0 | 0.0 | 0.00 | 0.00 | 0.00 | 83 | 1015.1 |
| 20260505065000 | 10 | 186 | 0.0 | 0.0 | 0.00 | 0.00 | 0.00 | 83 | 1015.0 |
| 20260505064502 | 10 | 186 | 0.0 | 0.0 | 0.00 | 0.00 | 0.00 | 82 | 1015.1 |
| 20260505064000 | 10 | 186 | 0.0 | 0.0 | 0.00 | 0.00 | 0.00 | 82 | 1015.1 |
| 20260505063501 | 10 | 186 | 0.0 | 0.0 | 0.00 | 0.00 | 0.00 | 82 | 1015.0 |
| 20260505063000 | 10 | 186 | 0.0 | 0.0 | 0.00 | 0.00 | 0.00 | 81 | 1015.1 |
| 20260505062000 | 10 | 186 | 0.0 | 0.0 | 0.00 | 0.00 | 0.00 | 81 | 1015.2 |
| 20260505061500 | 10 | 186 | 0.0 | 0.0 | 0.00 | 0.00 | 0.00 | 82 | 1015.2 |
| 20260505060500 | 10 | 186 | 0.0 | 0.0 | 0.00 | 0.00 | 0.00 | 83 | 1015.1 |
| 20260505060005 | 11 | 186 | 0.0 | 0.0 | 0.00 | 0.00 | 0.00 | 82 | 1015.0 |
| 20260505055500 | 11 | 186 | 0.0 | 0.0 | 0.00 | 0.00 | 0.00 | 82 | 1015.1 |
| 20260505054502 | 11 | 186 | 0.0 | 0.0 | 0.00 | 0.00 | 0.00 | 81 | 1015.1 |
| 20260505054000 | 11 | 186 | 0.0 | 0.0 | 0.00 | 0.00 | 0.00 | 79 | 1015.1 |
| 20260505053500 | 11 | 186 | 0.0 | 0.0 | 0.00 | 0.00 | 0.00 | 80 | 1015.2 |
| 20260505053000 | 11 | 186 | 0.0 | 0.0 | 0.00 | 0.00 | 0.00 | 80 | 1015.2 |
| 20260505052505 | 12 | 186 | 0.0 | 0.0 | 0.00 | 0.00 | 0.00 | 79 | 1015.2 |
| 20260505052000 | 12 | 186 | 0.0 | 0.0 | 0.00 | 0.00 | 0.00 | 78 | 1015.3 |
| 20260505051500 | 12 | 186 | 0.0 | 0.0 | 0.00 | 0.00 | 0.00 | 78 | 1015.3 |
| 20260505050500 | 12 | 186 | 0.0 | 0.0 | 0.00 | 0.00 | 0.00 | 78 | 1015.4 |
| 20260505041500 | 13 | 190 | 0.0 | 0.0 | 0.00 | 0.00 | 0.00 | 71 | 1015.3 |
| 20260505040500 | 13 | 190 | 0.0 | 0.0 | 0.00 | 0.00 | 0.00 | 70 | 1015.3 |
| 20260505040008 | 13 | 190 | 0.0 | 1.6 | 0.00 | 0.00 | 0.00 | 70 | 1015.3 |
| 20260505035502 | 13 | 190 | 0.0 | 1.6 | 0.00 | 0.00 | 0.00 | 70 | 1015.4 |
| 20260505035002 | 13 | 190 | 0.0 | 0.0 | 0.00 | 0.00 | 0.00 | 69 | 1015.4 |
| 20260505034502 | 13 | 190 | 0.0 | 0.0 | 0.00 | 0.00 | 0.00 | 69 | 1015.4 |
| 20260505033502 | 13 | 190 | 0.0 | 0.0 | 0.00 | 0.00 | 0.00 | 68 | 1015.5 |
| 20260505033002 | 14 | 190 | 0.0 | 0.0 | 0.00 | 0.00 | 0.00 | 68 | 1015.5 |
| 20260505032502 | 14 | 190 | 0.0 | 0.0 | 0.00 | 0.00 | 0.00 | 68 | 1015.4 |
| 20260505032004 | 14 | 190 | 0.0 | 0.0 | 0.00 | 0.00 | 0.00 | 68 | 1015.4 |
| 20260505031002 | 14 | 190 | 0.0 | 0.0 | 0.00 | 0.00 | 0.00 | 67 | 1015.4 |
| 20260505030504 | 14 | 190 | 0.0 | 0.0 | 0.00 | 0.00 | 0.00 | 67 | 1015.4 |
| 20260505030005 | 14 | 190 | 0.0 | 0.0 | 0.00 | 0.00 | 0.00 | 68 | 1015.4 |
| 20260505025503 | 15 | 190 | 0.0 | 0.0 | 0.00 | 0.00 | 0.00 | 68 | 1015.4 |
| 20260505025005 | 15 | 190 | 0.0 | 0.0 | 0.00 | 0.00 | 0.00 | 68 | 1015.5 |
| 20260505024503 | 15 | 190 | 0.0 | 0.0 | 0.00 | 0.00 | 0.00 | 68 | 1015.5 |
| 20260505024003 | 15 | 190 | 0.0 | 1.6 | 0.00 | 0.00 | 0.00 | 68 | 1015.4 |
| 20260505023501 | 15 | 190 | 0.0 | 1.6 | 0.00 | 0.00 | 0.00 | 67 | 1015.2 |
| 20260505023005 | 15 | 190 | 0.0 | 0.0 | 0.00 | 0.00 | 0.00 | 67 | 1015.1 |
| 20260505021503 | 15 | 190 | 0.0 | 0.0 | 0.00 | 0.00 | 0.00 | 65 | 1015.0 |
| 20260505020503 | 16 | 190 | 0.0 | 1.6 | 0.00 | 0.00 | 0.00 | 65 | 1015.0 |
| 20260505020006 | 16 | 190 | 0.0 | 0.0 | 0.00 | 0.00 | 0.00 | 64 | 1015.0 |
| 20260505015003 | 16 | 190 | 0.0 | 0.0 | 0.00 | 0.00 | 0.00 | 61 | 1014.9 |
| 20260505014504 | 16 | 190 | 0.0 | 0.0 | 0.00 | 0.00 | 0.00 | 61 | 1014.8 |
| 20260505014003 | 16 | 190 | 0.0 | 0.0 | 0.00 | 0.00 | 0.00 | 60 | 1014.8 |
| 20260505013504 | 16 | 190 | 0.0 | 0.0 | 0.00 | 0.00 | 0.00 | 60 | 1014.8 |
| 20260505013003 | 16 | 190 | 0.0 | 0.0 | 0.00 | 0.00 | 0.00 | 60 | 1014.7 |
| 20260505012502 | 17 | 190 | 0.0 | 0.0 | 0.00 | 0.00 | 0.00 | 60 | 1014.6 |
| 20260505012004 | 17 | 190 | 0.0 | 0.0 | 0.00 | 0.00 | 0.00 | 59 | 1014.6 |
| 20260505011003 | 17 | 190 | 0.0 | 0.0 | 0.00 | 0.00 | 0.00 | 58 | 1014.6 |
| 20260505010503 | 17 | 190 | 0.0 | 0.0 | 0.00 | 0.00 | 0.00 | 57 | 1014.5 |
| 20260505010006 | 18 | 190 | 0.0 | 0.0 | 0.00 | 0.00 | 0.00 | 57 | 1014.5 |
| 20260505005503 | 18 | 190 | 0.0 | 0.0 | 0.00 | 0.00 | 0.00 | 55 | 1014.5 |
| 20260505005002 | 18 | 190 | 0.0 | 0.0 | 0.00 | 0.00 | 0.00 | 55 | 1014.5 |
| 20260505004502 | 18 | 190 | 0.0 | 0.0 | 0.00 | 0.00 | 0.00 | 55 | 1014.5 |
| 20260505004002 | 18 | 190 | 0.0 | 0.0 | 0.00 | 0.00 | 0.00 | 54 | 1014.4 |
| 20260505003503 | 19 | 190 | 0.0 | 0.0 | 0.00 | 0.00 | 0.00 | 54 | 1014.4 |
| 20260505003002 | 19 | 190 | 0.0 | 0.0 | 0.00 | 0.00 | 0.00 | 53 | 1014.3 |
| 20260505002503 | 19 | 190 | 0.0 | 0.0 | 0.00 | 0.00 | 0.00 | 53 | 1014.3 |
| 20260505001502 | 20 | 190 | 0.0 | 0.0 | 0.00 | 0.00 | 0.00 | 52 | 1014.4 |
| 20260505001003 | 20 | 190 | 0.0 | 0.0 | 0.00 | 0.00 | 0.00 | 52 | 1014.3 |
| 20260505000007 | 20 | 190 | 0.0 | 0.0 | 0.00 | 0.00 | 0.00 | 52 | 1014.3 |
| 20260504235503 | 21 | 190 | 0.0 | 1.6 | 0.00 | 0.00 | 0.00 | 52 | 1014.2 |
| 20260504235004 | 21 | 190 | 0.0 | 1.6 | 0.00 | 0.00 | 0.00 | 52 | 1014.2 |
| 20260504234506 | 21 | 190 | 0.0 | 0.0 | 0.00 | 0.00 | 0.00 | 51 | 1014.1 |
| 20260504234003 | 21 | 190 | 0.0 | 0.0 | 0.00 | 0.00 | 0.00 | 51 | 1014.1 |
| 20260504233502 | 21 | 190 | 0.0 | 0.0 | 0.00 | 0.00 | 0.00 | 49 | 1014.0 |
| 20260504233004 | 22 | 190 | 0.0 | 1.6 | 0.00 | 0.00 | 0.00 | 49 | 1013.9 |
| 20260504232502 | 22 | 190 | 0.0 | 1.6 | 0.00 | 0.00 | 0.00 | 49 | 1013.9 |
| 20260504232002 | 22 | 190 | 0.0 | 1.6 | 0.00 | 0.00 | 0.00 | 48 | 1014.0 |
| 20260504231503 | 22 | 190 | 0.0 | 3.2 | 0.00 | 0.00 | 0.00 | 46 | 1014.0 |
| 20260504231003 | 22 | 190 | 0.0 | 4.8 | 0.00 | 0.00 | 0.00 | 47 | 1014.0 |
| 20260504230504 | 22 | 175 | 0.0 | 4.8 | 0.00 | 0.00 | 0.00 | 46 | 1014.0 |
| 20260504230005 | 22 | 269 | 0.0 | 0.0 | 0.00 | 0.00 | 0.00 | 44 | 1013.9 |
| 20260504225504 | 22 | 269 | 0.0 | 3.2 | 0.00 | 0.00 | 0.00 | 44 | 1014.0 |
| 20260504224502 | 23 | 294 | 0.0 | 3.2 | 0.00 | 0.00 | 0.00 | 43 | 1014.0 |
| 20260504224004 | 23 | 248 | 1.6 | 4.8 | 0.00 | 0.00 | 0.00 | 41 | 1013.9 |
| 20260504223502 | 23 | 266 | 1.6 | 4.8 | 0.00 | 0.00 | 0.00 | 40 | 1013.9 |
| 20260504223002 | 23 | 286 | 1.6 | 4.8 | 0.00 | 0.00 | 0.00 | 41 | 1014.0 |
| 20260504222504 | 23 | 284 | 3.2 | 9.7 | 0.00 | 0.00 | 0.00 | 39 | 1014.0 |
| 20260504222004 | 23 | 279 | 3.2 | 9.7 | 0.00 | 0.00 | 0.00 | 38 | 1014.0 |
| 20260504221502 | 23 | 257 | 3.2 | 8.0 | 0.00 | 0.00 | 0.00 | 39 | 1014.1 |
| 20260504221002 | 23 | 268 | 1.6 | 8.0 | 0.00 | 0.00 | 0.00 | 38 | 1014.1 |
| 20260504215501 | 23 | 355 | 4.8 | 12.9 | 0.00 | 0.00 | 0.00 | 36 | 1014.0 |
| 20260504215001 | 23 | 311 | 3.2 | 11.3 | 0.00 | 0.00 | 0.00 | 35 | 1014.1 |
| 20260504214000 | 24 | 143 | 3.2 | 6.4 | 0.00 | 0.00 | 0.00 | 37 | 1014.1 |
| 20260504213500 | 24 | 217 | 3.2 | 8.0 | 0.00 | 0.00 | 0.00 | 36 | 1014.1 |
| 20260504213001 | 24 | 227 | 4.8 | 11.3 | 0.00 | 0.00 | 0.00 | 36 | 1014.1 |
| 20260504212502 | 24 | 263 | 3.2 | 11.3 | 0.00 | 0.00 | 0.00 | 35 | 1014.1 |
| 20260504211502 | 24 | 277 | 4.8 | 16.1 | 0.00 | 0.00 | 0.00 | 35 | 1014.1 |
| 20260504211000 | 24 | 292 | 4.8 | 12.9 | 0.00 | 0.00 | 0.00 | 35 | 1014.0 |
| 20260504210501 | 25 | 253 | 3.2 | 12.9 | 0.00 | 0.00 | 0.00 | 36 | 1014.0 |
| 20260504210004 | 25 | 275 | 3.2 | 6.4 | 0.00 | 0.00 | 0.00 | 36 | 1013.9 |
| 20260504205503 | 25 | 115 | 3.2 | 6.4 | 0.00 | 0.00 | 0.00 | 36 | 1013.9 |
| 20260504205001 | 25 | 302 | 3.2 | 11.3 | 0.00 | 0.00 | 0.00 | 35 | 1014.1 |
| 20260504204001 | 25 | 296 | 1.6 | 12.9 | 0.00 | 0.00 | 0.00 | 34 | 1014.2 |
| 20260504203501 | 25 | 212 | 3.2 | 12.9 | 0.00 | 0.00 | 0.00 | 34 | 1014.2 |
| 20260504203001 | 26 | 242 | 1.6 | 9.7 | 0.00 | 0.00 | 0.00 | 35 | 1014.2 |
| 20260504202503 | 26 | 11 | 1.6 | 9.7 | 0.00 | 0.00 | 0.00 | 34 | 1014.0 |
| 20260504202001 | 26 | 174 | 3.2 | 11.3 | 0.00 | 0.00 | 0.00 | 33 | 1014.1 |
| 20260504201001 | 26 | 187 | 3.2 | 6.4 | 0.00 | 0.00 | 0.00 | 32 | 1014.2 |
| 20260504200501 | 27 | 189 | 3.2 | 6.4 | 0.00 | 0.00 | 0.00 | 35 | 1014.1 |
| 20260504200004 | 26 | 144 | 3.2 | 11.3 | 0.00 | 0.00 | 0.00 | 32 | 1014.2 |
| 20260504195503 | 26 | 161 | 1.6 | 11.3 | 0.00 | 0.00 | 0.00 | 35 | 1014.4 |
| 20260504195001 | 26 | 209 | 1.6 | 4.8 | 0.00 | 0.00 | 0.00 | 31 | 1014.3 |
| 20260504194503 | 27 | 49 | 3.2 | 8.0 | 0.00 | 0.00 | 0.00 | 32 | 1014.5 |
| 20260504194001 | 26 | 206 | 3.2 | 8.0 | 0.00 | 0.00 | 0.00 | 32 | 1014.5 |
| 20260504193500 | 26 | 102 | 4.8 | 11.3 | 0.00 | 0.00 | 0.00 | 34 | 1014.5 |
| 20260504193002 | 26 | 245 | 3.2 | 11.3 | 0.00 | 0.00 | 0.00 | 32 | 1014.6 |
| 20260504192502 | 26 | 205 | 3.2 | 11.3 | 0.00 | 0.00 | 0.00 | 37 | 1014.8 |
| 20260504192001 | 26 | 217 | 3.2 | 11.3 | 0.00 | 0.00 | 0.00 | 35 | 1014.9 |
| 20260504191501 | 26 | 44 | 3.2 | 8.0 | 0.00 | 0.00 | 0.00 | 33 | 1014.9 |
| 20260504191001 | 26 | 250 | 3.2 | 11.3 | 0.00 | 0.00 | 0.00 | 33 | 1015.1 |
| 20260504190003 | 26 | 206 | 3.2 | 12.9 | 0.00 | 0.00 | 0.00 | 36 | 1015.2 |
| 20260504185002 | 25 | 175 | 3.2 | 14.5 | 0.00 | 0.00 | 0.00 | 35 | 1015.4 |
| 20260504184502 | 25 | 5 | 3.2 | 14.5 | 0.00 | 0.00 | 0.00 | 35 | 1015.5 |
| 20260504184002 | 25 | 156 | 3.2 | 6.4 | 0.00 | 0.00 | 0.00 | 36 | 1015.5 |
| 20260504183002 | 25 | 316 | 3.2 | 8.0 | 0.00 | 0.00 | 0.00 | 36 | 1015.6 |
| 20260504182502 | 25 | 177 | 3.2 | 8.0 | 0.00 | 0.00 | 0.00 | 38 | 1015.6 |
| 20260504181502 | 25 | 208 | 3.2 | 8.0 | 0.00 | 0.00 | 0.00 | 40 | 1015.7 |
| 20260504181002 | 25 | 282 | 3.2 | 8.0 | 0.00 | 0.00 | 0.00 | 40 | 1015.8 |
| 20260504180501 | 24 | 9 | 3.2 | 8.0 | 0.00 | 0.00 | 0.00 | 34 | 1015.8 |
| 20260504180006 | 25 | 19 | 3.2 | 11.3 | 0.00 | 0.00 | 0.00 | 36 | 1015.8 |
| 20260504175502 | 24 | 205 | 4.8 | 11.3 | 0.00 | 0.00 | 0.00 | 35 | 1015.8 |
| 20260504175005 | 24 | 277 | 4.8 | 11.3 | 0.00 | 0.00 | 0.00 | 35 | 1015.9 |
| 20260504174504 | 24 | 281 | 3.2 | 6.4 | 0.00 | 0.00 | 0.00 | 38 | 1015.8 |
| 20260504174002 | 25 | 307 | 3.2 | 9.7 | 0.00 | 0.00 | 0.00 | 36 | 1015.9 |
| 20260504173001 | 25 | 297 | 1.6 | 6.4 | 0.00 | 0.00 | 0.00 | 35 | 1016.0 |
| 20260504172503 | 26 | 238 | 3.2 | 8.0 | 0.00 | 0.00 | 0.00 | 32 | 1016.0 |
| 20260504172002 | 26 | 228 | 1.6 | 6.4 | 0.00 | 0.00 | 0.00 | 33 | 1016.1 |